Hourly Weather Abbakumovo

Today, 30 September, Wednesday

Time Temperature Precipitation Wind Pressure Humidity
00:00 +10°C° 0 mm 3 mps 745 mmHg 62%
01:00 +9°C° 0 mm 3 mps 745 mmHg 63%
02:00 +9°C° 0 mm 3 mps 745 mmHg 65%
03:00 +8°C° 0 mm 3 mps 745 mmHg 67%
04:00 +8°C° 0 mm 3 mps 745 mmHg 68%
05:00 +8°C° 0 mm 3 mps 745 mmHg 70%
06:00 +9°C° 0 mm 3 mps 745 mmHg 68%
07:00 +9°C° 0 mm 3 mps 745 mmHg 66%
08:00 +10°C° 0 mm 4 mps 745 mmHg 64%
09:00 +12°C° 0 mm 4 mps 745 mmHg 60%
10:00 +13°C° 0 mm 4 mps 745 mmHg 57%
11:00 +15°C° 0 mm 5 mps 745 mmHg 53%
12:00 +15°C° 0 mm 5 mps 745 mmHg 53%
13:00 +16°C° 0 mm 5 mps 745 mmHg 52%
14:00 +16°C° 0 mm 5 mps 745 mmHg 51%
15:00 +15°C° 0 mm 4 mps 745 mmHg 55%
16:00 +14°C° 0 mm 4 mps 745 mmHg 60%
17:00 +13°C° 0 mm 3 mps 745 mmHg 64%
18:00 +12°C° 0 mm 4 mps 745 mmHg 64%
19:00 +11°C° 0 mm 4 mps 745 mmHg 64%
20:00 +11°C° 0 mm 4 mps 745 mmHg 64%
21:00 +11°C° 0 mm 4 mps 745 mmHg 64%
22:00 +10°C° 0 mm 4 mps 745 mmHg 64%
23:00 +10°C° 0 mm 4 mps 745 mmHg 65%

Tomorrow, 1 October, Thursday

Time Temperature Precipitation Wind Pressure Humidity
00:00 +10°C° 0 mm 4 mps 746 mmHg 65%
01:00 +8°C° 0 mm 4 mps 746 mmHg 66%
02:00 +8°C° 0 mm 4 mps 746 mmHg 66%
03:00 +8°C° 0 mm 4 mps 746 mmHg 67%
04:00 +8°C° 0 mm 4 mps 746 mmHg 67%
05:00 +8°C° 0 mm 4 mps 746 mmHg 68%
06:00 +8°C° 0 mm 4 mps 746 mmHg 67%
07:00 +10°C° 0 mm 4 mps 746 mmHg 65%
08:00 +10°C° 0 mm 5 mps 746 mmHg 64%
09:00 +13°C° 0 mm 5 mps 746 mmHg 61%
10:00 +14°C° 0 mm 5 mps 746 mmHg 58%
11:00 +16°C° 0 mm 5 mps 746 mmHg 55%
12:00 +16°C° 0 mm 5 mps 746 mmHg 54%
13:00 +17°C° 0 mm 5 mps 746 mmHg 53%
14:00 +17°C° 0 mm 6 mps 746 mmHg 52%
15:00 +16°C° 0 mm 5 mps 746 mmHg 55%
16:00 +14°C° 0 mm 4 mps 746 mmHg 59%
17:00 +12°C° 0 mm 4 mps 746 mmHg 62%
18:00 +12°C° 0 mm 4 mps 746 mmHg 62%
19:00 +11°C° 0 mm 4 mps 746 mmHg 62%
20:00 +10°C° 0 mm 4 mps 747 mmHg 61%
21:00 +10°C° 0 mm 4 mps 747 mmHg 63%
22:00 +10°C° 0 mm 4 mps 747 mmHg 64%
23:00 +10°C° 0 mm 4 mps 747 mmHg 65%

Day after tomorrow, 2 October, Friday

Time Temperature Precipitation Wind Pressure Humidity
00:00 +10°C° 0 mm 4 mps 747 mmHg 66%
01:00 +10°C° 0 mm 4 mps 747 mmHg 66%
02:00 +10°C° 0 mm 4 mps 747 mmHg 66%
03:00 +10°C° 0 mm 4 mps 747 mmHg 66%
04:00 +8°C° 0 mm 4 mps 747 mmHg 66%
05:00 +8°C° 0 mm 4 mps 747 mmHg 66%
06:00 +10°C° 0 mm 4 mps 747 mmHg 66%
07:00 +10°C° 0 mm 4 mps 747 mmHg 65%
08:00 +11°C° 0 mm 4 mps 747 mmHg 65%
09:00 +12°C° 0 mm 4 mps 747 mmHg 62%
10:00 +13°C° 0 mm 5 mps 747 mmHg 60%
11:00 +15°C° 0 mm 5 mps 747 mmHg 57%
12:00 +15°C° 0 mm 5 mps 747 mmHg 55%
13:00 +16°C° 0 mm 5 mps 747 mmHg 54%
14:00 +17°C° 0 mm 5 mps 747 mmHg 52%
15:00 +16°C° 0 mm 5 mps 747 mmHg 57%
16:00 +14°C° 0 mm 4 mps 747 mmHg 62%
17:00 +13°C° 0 mm 4 mps 747 mmHg 68%
18:00 +13°C° 0 mm 4 mps 748 mmHg 70%
19:00 +13°C° 0 mm 4 mps 748 mmHg 71%
20:00 +12°C° 0 mm 4 mps 748 mmHg 73%
21:00 +12°C° 0 mm 4 mps 748 mmHg 76%
22:00 +11°C° 0 mm 4 mps 748 mmHg 78%
23:00 +11°C° 0 mm 4 mps 748 mmHg 80%

3 October, Saturday

Time Temperature Precipitation Wind Pressure Humidity
00:00 +11°C° 0 mm 4 mps 748 mmHg 81%
01:00 +10°C° 0 mm 4 mps 748 mmHg 82%
02:00 +10°C° 0 mm 4 mps 747 mmHg 83%
03:00 +10°C° 0 mm 4 mps 747 mmHg 83%
04:00 +8°C° 0 mm 4 mps 747 mmHg 84%
05:00 +8°C° 0 mm 4 mps 747 mmHg 84%
06:00 +10°C° 0 mm 4 mps 747 mmHg 81%
07:00 +10°C° 0 mm 4 mps 747 mmHg 77%
08:00 +11°C° 0 mm 4 mps 747 mmHg 74%
09:00 +12°C° 0 mm 5 mps 747 mmHg 70%
10:00 +13°C° 0 mm 5 mps 747 mmHg 66%
11:00 +15°C° 0 mm 5 mps 748 mmHg 62%
12:00 +15°C° 0 mm 5 mps 748 mmHg 61%
13:00 +16°C° 0 mm 5 mps 747 mmHg 59%
14:00 +16°C° 0 mm 5 mps 747 mmHg 57%
15:00 +15°C° 0 mm 5 mps 747 mmHg 61%
16:00 +14°C° 0 mm 4 mps 747 mmHg 64%
17:00 +13°C° 0 mm 4 mps 748 mmHg 67%
18:00 +13°C° 0 mm 4 mps 748 mmHg 69%
19:00 +12°C° 0 mm 4 mps 748 mmHg 70%
20:00 +12°C° 0 mm 4 mps 748 mmHg 72%
21:00 +11°C° 0 mm 3 mps 748 mmHg 73%
22:00 +11°C° 0 mm 3 mps 748 mmHg 75%
23:00 +10°C° 0 mm 3 mps 748 mmHg 77%

4 October, Sunday

Time Temperature Precipitation Wind Pressure Humidity
00:00 +10°C° 0 mm 3 mps 748 mmHg 77%
01:00 +10°C° 0 mm 3 mps 748 mmHg 77%
02:00 +10°C° 0 mm 3 mps 748 mmHg 77%
03:00 +9°C° 0 mm 3 mps 748 mmHg 79%
04:00 +9°C° 0 mm 3 mps 748 mmHg 81%
05:00 +9°C° 0 mm 3 mps 748 mmHg 83%
06:00 +9°C° 0 mm 3 mps 748 mmHg 81%
07:00 +10°C° 0 mm 3 mps 748 mmHg 79%
08:00 +10°C° 0 mm 3 mps 748 mmHg 76%
09:00 +12°C° 0 mm 3 mps 749 mmHg 72%
10:00 +13°C° 0 mm 3 mps 749 mmHg 67%
11:00 +14°C° 0 mm 3 mps 749 mmHg 62%
12:00 +15°C° 0 mm 4 mps 749 mmHg 59%
13:00 +15°C° 0 mm 4 mps 749 mmHg 57%
14:00 +15°C° 0 mm 4 mps 749 mmHg 54%
15:00 +14°C° 0 mm 4 mps 749 mmHg 58%
16:00 +13°C° 0 mm 4 mps 749 mmHg 61%
17:00 +12°C° 0 mm 3 mps 749 mmHg 64%
18:00 +12°C° 0 mm 3 mps 749 mmHg 64%
19:00 +11°C° 0 mm 3 mps 749 mmHg 64%
20:00 +11°C° 0 mm 4 mps 749 mmHg 64%
21:00 +11°C° 0 mm 4 mps 749 mmHg 66%
22:00 +10°C° 0 mm 4 mps 749 mmHg 68%
23:00 +10°C° 0 mm 4 mps 749 mmHg 70%

5 October, Monday

Time Temperature Precipitation Wind Pressure Humidity
00:00 +8°C° 0 mm 4 mps 749 mmHg 71%
01:00 +8°C° 0 mm 4 mps 749 mmHg 72%
02:00 +8°C° 0 mm 4 mps 749 mmHg 72%
03:00 +8°C° 0 mm 4 mps 749 mmHg 72%
04:00 +8°C° 0 mm 4 mps 749 mmHg 71%
05:00 +8°C° 0 mm 5 mps 749 mmHg 71%
06:00 +8°C° 0 mm 5 mps 748 mmHg 69%
07:00 +9°C° 0 mm 5 mps 748 mmHg 67%
08:00 +9°C° 0 mm 5 mps 748 mmHg 66%
09:00 +12°C° 0 mm 5 mps 748 mmHg 60%
10:00 +13°C° 0 mm 6 mps 748 mmHg 54%
11:00 +15°C° 0 mm 6 mps 749 mmHg 49%
12:00 +15°C° 0 mm 6 mps 748 mmHg 48%
13:00 +15°C° 0 mm 6 mps 748 mmHg 48%
14:00 +15°C° 0 mm 5 mps 748 mmHg 47%
15:00 +15°C° 0 mm 5 mps 748 mmHg 50%
16:00 +14°C° 0 mm 4 mps 748 mmHg 52%
17:00 +13°C° 0 mm 4 mps 747 mmHg 54%
18:00 +13°C° 0 mm 4 mps 747 mmHg 55%
19:00 +13°C° 0 mm 4 mps 747 mmHg 55%
20:00 +13°C° 0 mm 5 mps 747 mmHg 56%
21:00 +13°C° 0 mm 4 mps 747 mmHg 57%
22:00 +12°C° 0 mm 4 mps 747 mmHg 58%
23:00 +12°C° 0 mm 4 mps 747 mmHg 59%
Show more